OM6ACB-6 Weather Reports


Display with metric or nautical units.
time (UTC)temp
F
wind
direction
speed
MPH
gust
MPH
rain 1hr
in
rain 24hr
in
rain mn
in
humidity
%
barometer
mb
20260901101318 73 205 3.0 6.0 0.00 0.00 0.00 21 1023.9
20260901100318 74 192 3.0 6.0 0.00 0.00 0.00 21 1024.0
20260901095318 78 188 3.0 4.0 0.00 0.00 0.00 20 1024.3
20260901094317 76 236 2.0 4.0 0.00 0.00 0.00 20 1024.2
20260901093317 75 173 3.0 5.0 0.00 0.00 0.00 21 1024.5
20260901092317 76 190 4.0 7.0 0.00 0.00 0.00 20 1024.2
20260901091317 77 144 3.0 7.0 0.00 0.00 0.00 20 1024.4
20260901090316 76 198 4.0 11.0 0.00 0.00 0.00 20 1024.3
20260901085316 74 170 4.0 8.0 0.00 0.00 0.00 21 1024.3
20260901084316 74 191 4.0 10.0 0.00 0.00 0.00 21 1024.0
20260901083315 76 157 4.0 14.0 0.00 0.00 0.00 20 1024.2
20260901082315 75 190 5.0 6.0 0.00 0.00 0.00 20 1024.1
20260901081315 75 191 5.0 8.0 0.00 0.00 0.00 21 1024.0
20260901080314 77 174 3.0 8.0 0.00 0.00 0.00 20 1024.2
20260901075314 75 193 4.0 7.0 0.00 0.00 0.00 21 1023.8
20260901074314 77 85 1.0 4.0 0.00 0.00 0.00 20 1023.9
20260901073314 76 194 2.0 8.0 0.00 0.00 0.00 20 1023.9
20260901072313 73 139 3.0 8.0 0.00 0.00 0.00 21 1023.8
20260901071313 75 118 3.0 5.0 0.00 0.00 0.00 21 1023.7
20260901070313 76 154 2.0 5.0 0.00 0.00 0.00 20 1023.6
20260901065312 75 91 3.0 4.0 0.00 0.00 0.00 21 1023.4
20260901064312 76 88 2.0 5.0 0.00 0.00 0.00 20 1023.3
20260901063312 78 111 0.0 3.0 0.00 0.00 0.00 20 1023.5
20260901062312 75 72 1.0 2.0 0.00 0.00 0.00 21 1023.3
20260901061311 73 82 0.0 1.0 0.00 0.00 0.00 21 1023.2
20260901060311 71 108 0.0 3.0 0.00 0.00 0.00 22 1023.1
20260901055311 70 98 1.0 3.0 0.00 0.00 0.00 22 1022.9
20260901054310 68 92 1.0 3.0 0.00 0.00 0.00 22 1022.7
20260901053310 68 93 0.0 1.0 0.00 0.00 0.00 23 1022.6
20260901052310 66 105 0.0 1.0 0.00 0.00 0.00 23 1022.4
20260901051314 65 0 0.0 0.0 0.00 0.00 0.00 23 1022.3
20260901050309 65 0 0.0 0.0 0.00 0.00 0.00 23 1022.3
20260901045309 61 270 0.0 3.0 0.00 0.00 0.00 24 1021.6
20260901044309 62 92 0.0 0.0 0.00 0.00 0.00 24 1021.6
20260901043308 58 106 0.0 3.0 0.00 0.00 0.00 25 1021.2
20260901042308 56 104 0.0 3.0 0.00 0.00 0.00 32 1021.0
20260901041308 56 238 0.0 2.0 0.00 0.00 0.00 53 1020.8
20260901040307 56 0 0.0 0.0 0.00 0.00 0.00 52 1020.8
20260901035307 56 90 0.0 0.0 0.00 0.00 0.00 50 1020.8
20260901034307 56 181 0.0 0.0 0.00 0.00 0.00 50 1020.7
20260901033307 56 0 0.0 0.0 0.00 0.00 0.00 47 1020.6
20260901032307 57 90 0.0 0.0 0.00 0.00 0.00 46 1020.8
20260901031306 58 0 0.0 0.0 0.00 0.00 0.00 46 1020.8
20260901030306 58 0 0.0 0.0 0.00 0.00 0.00 43 1020.9
20260901025306 58 0 0.0 0.0 0.00 0.00 0.00 44 1020.9
20260901024305 59 0 0.0 0.0 0.00 0.00 0.00 40 1021.0
20260901023305 60 90 0.0 0.0 0.00 0.00 0.00 34 1020.9
20260901022306 60 90 0.0 0.0 0.00 0.00 0.00 32 1020.9
20260901021304 61 0 0.0 0.0 0.00 0.00 0.00 29 1020.9
20260901020304 61 270 0.0 2.0 0.00 0.00 0.00 26 1020.9
20260901015305 62 213 0.0 1.0 0.00 0.01 0.00 24 1020.8
20260901014303 62 169 0.0 2.0 0.00 0.01 0.00 24 1021.0
20260901013303 62 90 0.0 0.0 0.00 0.01 0.00 24 1021.1
20260901012306 62 179 0.0 2.0 0.00 0.01 0.00 24 1020.8
20260901011302 62 305 0.0 3.0 0.00 0.01 0.00 24 1020.8
20260901010302 62 90 0.0 1.0 0.00 0.01 0.00 24 1020.9
20260901005306 61 0 0.0 0.0 0.00 0.01 0.00 25 1021.0
20260901004302 61 1 0.0 1.0 0.00 0.01 0.00 25 1021.0
20260901003301 61 1 0.0 2.0 0.00 0.01 0.00 25 1021.1
20260901002305 62 135 0.0 1.0 0.00 0.01 0.00 24 1021.2
20260901001301 63 210 0.0 3.0 0.00 0.01 0.00 24 1021.4
20260901000303 62 181 0.0 1.0 0.00 0.01 0.00 24 1021.4
20260831235300 62 181 0.0 2.0 0.00 0.01 0.00 24 1021.4
20260831234300 63 0 0.0 0.0 0.00 0.01 0.00 24 1021.5
20260831233300 62 0 0.0 0.0 0.00 0.01 0.00 24 1021.5
20260831232259 62 225 0.0 2.0 0.00 0.01 0.00 24 1021.6
20260831231259 62 0 0.0 0.0 0.00 0.01 0.00 24 1021.6
20260831230259 62 0 0.0 0.0 0.00 0.01 0.00 24 1021.6
20260831225258 62 0 0.0 0.0 0.00 0.01 0.00 24 1021.7
20260831224258 62 65 0.0 2.0 0.00 0.01 0.00 24 1021.6
20260831223258 62 69 0.0 2.0 0.00 0.01 0.00 24 1021.2
20260831222307 61 181 0.0 0.0 0.00 0.01 0.00 24 1020.9
20260831221257 62 0 0.0 0.0 0.00 0.01 0.00 24 1020.7
20260831220257 61 0 0.0 0.0 0.00 0.01 0.00 24 1020.6
20260831215257 61 0 0.0 0.0 0.00 0.01 0.01 24 1020.4
20260831214256 61 0 0.0 0.0 0.00 0.01 0.01 25 1020.3
20260831213256 61 181 0.0 1.0 0.00 0.01 0.01 24 1020.3
20260831212256 61 181 0.0 1.0 0.00 0.01 0.01 25 1020.2
20260831211255 61 302 0.0 2.0 0.00 0.01 0.01 24 1020.1
20260831210255 61 0 0.0 0.0 0.00 0.01 0.01 24 1019.9
20260831205255 61 0 0.0 0.0 0.00 0.01 0.01 24 1019.7
20260831204255 61 243 0.0 1.0 0.00 0.01 0.01 24 1019.5
20260831203254 62 166 0.0 2.0 0.00 0.01 0.01 24 1019.5
20260831202254 61 0 0.0 0.0 0.00 0.01 0.01 27 1019.1
20260831201254 61 315 0.0 0.0 0.00 0.01 0.01 27 1019.2
20260831200253 62 314 0.0 1.0 0.00 0.01 0.01 24 1019.6
20260831195253 63 181 0.0 3.0 0.00 0.01 0.01 24 1019.6
20260831194253 63 0 0.0 0.0 0.00 0.01 0.01 24 1019.4
20260831193253 62 0 0.0 0.0 0.00 0.01 0.01 24 1019.4
20260831192252 63 314 0.0 1.0 0.00 0.01 0.01 24 1019.4
20260831191252 63 0 0.0 0.0 0.00 0.01 0.01 24 1019.4
20260831190252 63 1 0.0 2.0 0.00 0.01 0.01 24 1019.3
20260831185251 66 207 0.0 3.0 0.00 0.01 0.01 23 1019.6
20260831184251 67 225 0.0 3.0 0.00 0.01 0.01 23 1019.5
20260831183251 66 270 0.0 2.0 0.00 0.01 0.01 23 1019.3
20260831182250 67 225 0.0 2.0 0.00 0.01 0.01 23 1019.4
20260831181250 69 257 0.0 2.0 0.00 0.01 0.01 22 1019.5
20260831180250 69 33 0.0 1.0 0.00 0.01 0.01 22 1019.4
20260831175250 69 90 0.0 0.0 0.00 0.01 0.01 22 1019.3
20260831174249 70 0 0.0 0.0 0.00 0.01 0.01 22 1019.3
20260831173251 70 0 0.0 0.0 0.00 0.01 0.01 22 1019.4
20260831172250 71 0 0.0 0.0 0.00 0.01 0.01 22 1019.4
20260831171248 71 0 0.0 0.0 0.00 0.01 0.01 22 1019.4
20260831170248 71 0 0.0 0.0 0.00 0.01 0.01 22 1019.3
20260831165248 72 1 0.0 3.0 0.00 0.01 0.01 21 1019.4
20260831164248 73 1 0.0 1.0 0.00 0.01 0.01 21 1019.4
20260831163247 73 123 0.0 2.0 0.00 0.01 0.01 21 1019.4
20260831162247 74 273 1.0 4.0 0.00 0.01 0.01 21 1019.3
20260831161247 75 242 2.0 5.0 0.00 0.01 0.01 21 1019.3
20260831160246 74 224 1.0 4.0 0.00 0.01 0.01 21 1019.2
20260831155246 73 228 2.0 4.0 0.00 0.01 0.01 21 1019.2
20260831154246 74 186 3.0 6.0 0.00 0.01 0.01 21 1019.1
20260831153245 74 182 3.0 5.0 0.00 0.01 0.01 21 1019.2
20260831152245 74 178 2.0 4.0 0.00 0.01 0.01 21 1019.2
20260831151245 78 185 2.0 4.0 0.00 0.01 0.01 20 1019.7
20260831150245 77 182 2.0 3.0 0.01 0.01 0.01 20 1019.7
20260831145245 77 179 3.0 4.0 0.01 0.01 0.01 20 1019.8
20260831144244 78 192 3.0 4.0 0.01 0.01 0.01 20 1019.7
20260831143244 74 185 1.0 3.0 0.01 0.01 0.01 21 1019.5
20260831142243 72 157 3.0 4.0 0.01 0.01 0.01 21 1019.5
20260831141243 72 130 3.0 20.0 0.00 0.00 0.00 22 1019.4
20260831140243 77 99 2.0 4.0 0.00 0.00 0.00 20 1019.5
20260831135243 82 151 1.0 4.0 0.00 0.00 0.00 20 1019.8
20260831134242 82 88 3.0 8.0 0.00 0.00 0.00 20 1019.8
20260831133242 83 79 3.0 5.0 0.00 0.00 0.00 20 1019.9
20260831132242 83 99 3.0 6.0 0.00 0.00 0.00 20 1019.9
20260831131241 85 111 2.0 5.0 0.00 0.00 0.00 20 1020.1
20260831130241 85 108 2.0 6.0 0.00 0.00 0.00 20 1020.3
20260831125241 85 70 3.0 6.0 0.00 0.00 0.00 20 1020.2
20260831124240 87 62 4.0 6.0 0.00 0.00 0.00 20 1020.4
20260831123240 90 90 5.0 8.0 0.00 0.00 0.00 20 1020.9
20260831122240 88 89 3.0 6.0 0.00 0.00 0.00 20 1020.7
20260831121240 91 99 4.0 8.0 0.00 0.00 0.00 20 1021.1
20260831120239 86 74 3.0 8.0 0.00 0.00 0.00 20 1020.9
20260831115239 85 111 6.0 9.0 0.00 0.00 0.00 20 1020.9
20260831114239 87 108 5.0 9.0 0.00 0.00 0.00 20 1021.1
20260831113238 84 96 6.0 10.0 0.00 0.00 0.00 20 1020.9
20260831112238 84 96 3.0 9.0 0.00 0.00 0.00 20 1020.8
20260831111238 83 170 3.0 9.0 0.00 0.00 0.00 20 1020.9
20260831110238 83 37 4.0 8.0 0.00 0.00 0.00 20 1021.0
20260831105237 83 108 3.0 6.0 0.00 0.00 0.00 20 1021.1
20260831104237 84 84 3.0 8.0 0.00 0.00 0.00 20 1021.1
20260831103237 90 70 4.0 7.0 0.00 0.00 0.00 20 1021.6
20260831102236 86 112 4.0 8.0 0.00 0.00 0.00 20 1021.4